JCSAT-16

Last updated on May 23, 2019, 3:05 a.m. UTC

1 41729U 16050A   19142.84968682 -.00000314  00000-0  00000+0 0  9991
2 41729   0.0138 299.8043 0001705  90.5733 291.6788  1.00270739 10171
UTC
Height (km)
Latitude
Longitude
Inclination
Orbital Period
UTC large
Height (km)
Speed (km/s)
/
Latitude / Longitude
Inclination (degrees)
Orbital Period (minutes)
Azimuth
Elevation
Range (km)
Doppler Factor
iOS Compass Heading
iOS Angle

Next 30 passes for location: Hong Kong

Rise time Rise Azimuth (degrees) Set time Set Azimuth (degrees) Duration Max altitude (degrees)

No matching passes for this satellites